Showing default

METEOR 2-5, 11605

Orbit data source: Space-Track

METEOR 2-5, 11605 is a Commonwealth of Independent States-origin payload satellite in LEO that was launched on Wed, 31 Oct 1979 UTC via a VOSTOK 8A92M launch vehicle from the Plesetsk Missile And Space Complex (PKMTR). Payload-class satellites include a variety of spacecraft equipped with specific instruments for various scientific and technological missions. These include communications satellites like Starlink; space stations such as the ISS; scientific satellites like the Hubble; Earth observation satellites from companies like Planet Labs, Umbra, and HawkEye 360; GPS; miniature CubeSats for education and research; and military/defense satellites.

Loading next visibility...
Identifier
11605, 1979-095A
Orbit
LEO
Country
Flag of CISCIS
Related business
Manufacturer
VNIIEM
Mission
Spacecraft
Bus & Motor
METEOR-2, Unknown motor
Mass
~1,500 kg wet, ~1,500 kg dry
Launch date (UTC)
1979-10-31 (47 years ago)
Launch vehicle
VOSTOK 8A92M
Launch site
Plesetsk Missile And Space Complex (PKMTR)
Object type
Payload
Rocket body
Debris
Shape & HBR
CYL + 2 PAN, 1.1 m
Radar Cross Section
Large (>1 m²)

Expand to show TLE details & history
Last TLE update: 14 hours ago

TLE from 14 hours ago
0 METEOR 2-5
1 11605U 79095A   26265.37434204 -.00000004  00000-0 -99658-5 0  9999
2 11605  81.2084 136.8235 0015005 352.5119   7.5824 14.07477172406975
Epoch: 2026-09-22T08:59Z
TLE epoch observation values (Epoch: 2026-09-22T08:59:03.152Z)
Latitude
0.00002°
Longitude
0.81964°
Altitude
860.133 km
Speed
7.428 km/s
True Right ascension
09h 07m 17s
True Declination
0° 00' 00"
Sunlit
Object was in daylight at epoch
Visualization orbit readout
Latitude
Unknown
Longitude
Unknown
Altitude
Unknown
Speed
Unknown
Apparent Right ascension
Unknown
Apparent Declination
Unknown
Sunlit
N/A
Visualization observer readout
Local Sidereal Time
16:00:00
Azimuth
Unknown
Elevation
Unknown
Doppler factor
Unknown
Orbital elements
Apogee altitude
876.066 km
Perigee altitude
854.328 km
Semi-major axis
7,243.334 km
Eccentricity
0.0015
Inclination
81.2084°
RAAN
136.8235°
Arg. of periapsis
352.5119°
True anomaly
7.60513°
Mean anomaly
7.5824°
Eccentric anomaly
7.59376°
Mean motion
3.52075 °/min
Orbital period
102.25 mins
BSTAR
-0.0000099658
Loading maneuver chart data...
Computing Atmospheric mass density...

Documentation

Showing up to 5 results
|